EDT,Max TemperatureF,Mean TemperatureF,Min TemperatureF,Max Dew PointF,MeanDew PointF,Min DewpointF,Max Humidity, Mean Humidity, Min Humidity, Max Sea Level PressureIn, Mean Sea Level PressureIn, Min Sea Level PressureIn, Max VisibilityMiles, Mean VisibilityMiles, Min VisibilityMiles, Max Wind SpeedMPH, Mean Wind SpeedMPH, Max Gust SpeedMPH,PrecipitationIn, CloudCover, Events, WindDirDegrees
2013-5-1,57,55,51,48,46,45,77,73,67,30.47,30.46,30.45,10,10,10,8,5,,0.00,0,,140
2013-5-2,60,58,55,48,46,45,77,62,55,30.46,30.41,30.37,10,10,10,14,7,,0.00,0,,202
2013-5-3,,,,,,,,,,,,,,,,,,,,,,
2013-5-4,53,52,48,45,43,43,82,75,71,30.31,30.30,30.29,10,10,10,14,13,24,0.00,0,,137
2013-5-5,51,50,48,46,45,45,87,81,76,30.28,30.27,30.26,10,10,8,12,9,20,0.00,1,,132
2013-5-6,,,,,,,,,,,,,,,,,,,,,,
2013-5-7,64,58,51,57,56,52,100,88,77,30.19,30.16,30.14,10,8,0,7,2,,0.00,4,Fog,125
2013-5-8,60,58,57,61,57,55,100,95,94,30.13,30.09,30.07,7,5,4,12,10,23,0.00,8,Rain,116
2013-5-9,59,57,53,59,56,54,100,97,94,29.99,29.94,29.90,10,6,1,8,4,,0.00,8,Rain,220
2013-5-10,73,68,62,57,56,54,77,64,53,30.00,29.99,29.99,10,10,10,12,8,,0.00,3,,212
2013-5-11,,,,,,,,,,,,,,,,,,,,,,
2013-5-12,60,,60,54,54,54,77,77,77,29.68,29.68,29.68,10,10,10,14,14,,0.00,1,,260
2013-5-13,,,,,,,,,,,,,,,,,,,,,,
2013-5-14,57,54,50,36,32,27,58,44,33,30.09,30.07,30.04,10,10,10,17,7,,0.00,1,,282
2013-5-15,,,,,,,,,,,,,,,,,,,,,,
2013-5-16,68,64,60,59,53,48,88,66,49,29.82,29.79,29.75,10,10,8,22,7,,0.00,4,,234
2013-5-17,68,64,60,46,44,43,55,49,40,30.12,30.07,30.03,10,10,10,12,9,,0.00,1,,287
2013-5-18,64,62,59,54,53,52,82,77,68,30.33,30.32,30.32,10,10,10,15,11,,0.00,8,,228
2013-5-19,59,57,55,55,54,54,100,91,82,30.37,30.31,30.26,10,5,1,12,6,,0.00,8,Rain,144
2013-5-20,68,64,60,64,62,61,100,92,83,30.11,30.06,30.01,10,6,0,16,9,,0.00,4,Fog,232
2013-5-21,69,66,62,66,63,61,100,89,83,29.97,29.93,29.89,10,8,3,20,11,,0.00,2,,223
2013-5-22,66,62,57,64,60,55,100,95,88,29.96,29.94,29.91,10,4,1,9,7,,0.00,8,,208
2013-5-23,64,63,62,63,62,61,100,95,94,29.97,29.95,29.93,5,3,0,17,14,,0.00,8,Fog,214
2013-5-24,66,62,53,64,60,52,100,94,82,29.81,29.76,29.74,10,6,2,15,3,,0.00,8,Rain,301
2013-5-25,48,48,48,46,46,43,93,90,82,29.82,29.81,29.81,10,5,1,28,16,38,0.00,7,Rain,330
2013-5-26,60,56,53,57,43,39,94,60,48,30.08,29.99,29.94,10,10,10,23,18,31,0.00,4,,310
2013-5-27,68,66,60,46,41,36,59,43,30,30.19,30.17,30.15,10,10,10,21,15,,0.00,0,,239
2013-5-28,64,56,48,55,52,46,94,87,64,30.24,30.23,30.22,10,8,5,7,2,,0.00,4,Rain,210
2013-5-29,59,,59,57,57,57,94,94,94,30.12,30.12,30.12,2,2,2,12,12,,0.00,8,,240
2013-5-30,78,76,73,70,66,64,78,72,65,30.13,30.11,30.08,10,9,7,12,4,,0.00,0,,216
2013-5-31,82,78,71,68,66,63,73,65,62,30.10,30.07,30.03,9,8,7,20,11,,0.00,0,,228